Flag for U.S.A. Weather past 2 weeks in Rochester, New York, U.S.A.

Now
64 °F

Broken clouds.


Feels Like: 64 °F
Forecast: 64 / 71 °F
Wind: 13 mph from Northeast

Location: Greater Rochester International Airport

Current Time: Jul 24, 2014 at 9:38:02 AM

Latest Report: Jul 24, 2014 at 8:54 AM


Visibility: 10 mi

Pressure: 30.05 "Hg

Humidity: 56%

Dew point: 48 °F

Location of RochesterLocation

Historic Weather in Rochester — Graph

°F

Rochester temperature yesterday

Maximum temperature yesterday: 82 °F (at 9:54 AM)
Minimum temperature yesterday: 67 °F (at 10:54 PM)
Average temperature yesterday: 72 °F

Past Weeks' High & Low Weather Summary

 TemperatureHumidityPressure
High84 °F (Jul 22, 12:54 PM)100% (Jul 15, 7:54 AM)30.27 "Hg (Jul 15, 7:54 AM)
Low53 °F (Jul 18, 4:54 AM)37% (Jul 18, 1:54 PM)29.69 "Hg (Jul 15, 12:54 PM)
Average69 °F71%30.03 "Hg
* Reported Jul 9 8:54 AM — Jul 24 7:54 AM, Rochester, Weather by CustomWeather, © 2014

Note: Actual official high and low records may vary slightly from our data, if they occured in-between our weather recording intervals... More about our weather records

Advertising

Rochester weather history for previous 24 hours

 ConditionsComfort  
Time TempWeatherWind HumidityBarometerVisibility
7:54 AM
Jul 24
63 °FBroken clouds.15 mph63%30.04 "Hg10 mi
6:54 AM62 °FMostly cloudy.12 mph65%30.02 "Hg10 mi
5:54 AM62 °FMostly cloudy.12 mph65%30.01 "Hg10 mi
4:54 AM61 °FPassing clouds.7 mph72%29.99 "Hg10 mi
3:54 AM63 °FPassing clouds.10 mph68%29.98 "Hg10 mi
2:54 AM63 °FPassing clouds.10 mph81%29.98 "Hg10 mi
1:54 AM65 °FOvercast.6 mph78%29.97 "Hg10 mi
12:54 AM66 °FOvercast.5 mph78%29.98 "Hg10 mi
11:54 PM
Jul 23
67 °FOvercast.3 mph76%29.98 "Hg10 mi
10:54 PM67 °FOvercast.6 mph73%29.98 "Hg10 mi
9:54 PM68 °FMostly cloudy.6 mph70%29.98 "Hg10 mi
8:54 PM69 °FOvercast.7 mph68%29.96 "Hg10 mi
7:54 PM69 °FOvercast.9 mph68%29.93 "Hg10 mi
6:54 PM70 °FLow clouds.10 mph68%29.92 "Hg10 mi
5:54 PM72 °FMostly cloudy.10 mph66%29.91 "Hg10 mi
4:54 PM73 °FPartly sunny.16 mph66%29.90 "Hg10 mi
3:54 PM76 °FBroken clouds.14 mph64%29.89 "Hg10 mi
2:54 PM74 °FCloudy.9 mph76%29.88 "Hg10 mi
1:54 PM69 °FLight rain. Mostly cloudy.7 mph87%29.88 "Hg10 mi
12:54 PM68 °FLight rain. Overcast.12 mph90%29.89 "Hg10 mi
11:54 AM70 °FLight rain. Mostly cloudy.13 mph90%29.88 "Hg7 mi
10:54 AM79 °FMostly cloudy.10 mph74%29.85 "Hg7 mi
9:54 AM82 °FMore clouds than sun.13 mph67%29.85 "Hg9 mi
Weather by CustomWeather, © 2014

See weather overviewHow to use our weather pages